User: anonymous
Location: SAPM � Hemmingford
(45.0500°N, 73.5833°W)
Time: 15:33:53
(UTC-04:00)
Language:

Cosmos 1674 Rocket - Orbit

View from above orbital plane
View from above orbital plane
View from above satellite
View from above satellite

Ground track
Ground track

The orbit data is extracted from the following two-line orbital elements,

1 15945U 85069B   14259.83183627  .00000414  00000-0  47439-4 0  7540
2 15945 082.5311 353.3790 0019440 000.3294 139.1227 14.83405077572101
Epoch (UTC): 16 September 2014 19:57:50
Eccentricity: 0.0019440
inclination: 82.5311°
perigee height: 605 km
apogee height: 632 km
right ascension of ascending node: 353.3790°
argument of perigee: 0.3294°
revolutions per day: 14.83405077
mean anomaly at epoch: 139.1227°
orbit number at epoch: 57210

The dashed part of the orbit path shows where the satellite is in the earth's shadow,  

DLR